Flag for Germany Weather past 2 weeks in Mörfelden-Walldorf, Hesse, Germany

Now
59 °F

Light rain. Clear.


Feels Like: 57 °F
Forecast: 51 / 70 °F
Wind: 10 mph from Southwest

Location: Frankfurt-M-Flughafen Airport

Current Time: Jul 29, 2015 at 3:02:16 AM

Latest Report: Jul 29, 2015 at 2:20 AM


Visibility: N/A

Pressure: 29.83 "Hg

Humidity: 68%

Dew point: 48 °F

Location of Mörfelden-WalldorfLocation

Historic Weather in Mörfelden-Walldorf — Graph

°F

Mörfelden-Walldorf temperature yesterday

Maximum temperature yesterday: 72 °F (at 2:20 PM)
Minimum temperature yesterday: 59 °F (at 4:20 AM)
Average temperature yesterday: 65 °F

Past Weeks' High & Low Weather Summary

 TemperatureHumidityPressure
High95 °F (Jul 17, 4:20 PM)94% (Jul 18, 12:50 AM)30.12 "Hg (Jul 18, 12:50 AM)
Low48 °F (Jul 26, 4:20 AM)22% (Jul 17, 4:20 PM)29.62 "Hg (Jul 24, 11:20 PM)
Average72 °F60%29.92 "Hg
* Reported Jul 14 1:20 AM — Jul 29 1:50 AM, Mörfelden-Walldorf, Weather by CustomWeather, © 2015

Note: Actual official high and low records may vary slightly from our data, if they occured in-between our weather recording intervals... More about our weather records

Advertising

Mörfelden-Walldorf weather history for previous 24 hours

 ConditionsComfort  
Time TempWeatherWind HumidityBarometerVisibility
1:50 AM
Wed, Jul 29
61 °FClear.10 mph63%29.83 "Hg10 mi
1:20 AM61 °FPassing clouds.10 mph63%29.83 "HgN/A
12:50 AM61 °FClear.12 mph59%29.83 "Hg10 mi
11:20 PM
Tue, Jul 28
64 °FClear.16 mph49%29.83 "Hg10 mi
10:50 PM64 °FClear.10 mph49%29.83 "Hg10 mi
10:20 PM64 °FClear.12 mph49%29.83 "Hg10 mi
9:50 PM64 °FSunny.14 mph46%29.83 "Hg10 mi
9:20 PM66 °FSunny.15 mph43%29.80 "Hg10 mi
8:50 PM66 °FSunny.16 mph43%29.80 "Hg10 mi
8:20 PM66 °FSunny.17 mph43%29.80 "Hg10 mi
7:50 PM66 °FSunny.15 mph43%29.80 "Hg10 mi
7:20 PM68 °FSunny.17 mph38%29.80 "Hg10 mi
6:50 PM68 °FSunny.18 mph38%29.80 "Hg10 mi
6:20 PM68 °FSunny.18 mph35%29.80 "Hg10 mi
5:50 PM68 °FPassing clouds.20 mph38%29.80 "HgN/A
5:20 PM68 °FSunny.20 mph35%29.77 "Hg10 mi
4:50 PM68 °FSunny.22 mph38%29.80 "Hg10 mi
4:20 PM70 °FSunny.22 mph31%29.80 "Hg10 mi
3:50 PM72 °FPassing clouds.21 mph31%29.77 "HgN/A
3:20 PM70 °FSunny.22 mph33%29.77 "Hg10 mi
2:50 PM68 °FSunny.21 mph35%29.77 "Hg10 mi
2:20 PM72 °FPassing clouds.24 mph31%29.77 "HgN/A
1:50 PM70 °FPassing clouds.21 mph33%29.77 "HgN/A
1:20 PM68 °FPassing clouds.17 mph38%29.77 "HgN/A
12:50 PM68 °FSunny.16 mph38%29.77 "Hg10 mi
12:20 PM66 °FSunny.21 mph37%29.77 "Hg10 mi
11:20 AM68 °FPassing clouds.23 mph40%29.77 "HgN/A
10:50 AM64 °FSunny.18 mph43%29.77 "Hg10 mi
10:20 AM66 °FSunny.20 mph40%29.77 "Hg10 mi
9:50 AM64 °FScattered clouds.20 mph49%29.80 "HgN/A
9:20 AM63 °FPartly sunny.18 mph52%29.77 "HgN/A
8:50 AM63 °FPartly sunny.22 mph56%29.77 "HgN/A
8:20 AM63 °FScattered clouds.15 mph64%29.77 "HgN/A
7:50 AM61 °FScattered clouds.7 mph68%29.77 "HgN/A
7:20 AM61 °FScattered clouds.14 mph63%29.77 "HgN/A
6:50 AM61 °FScattered clouds.12 mph63%29.77 "HgN/A
6:20 AM61 °FPassing clouds.13 mph72%29.74 "HgN/A
5:50 AM59 °FPartly cloudy.6 mph82%29.74 "HgN/A
5:20 AM61 °FPassing clouds.7 mph83%29.74 "HgN/A
4:50 AM61 °FPassing clouds.9 mph83%29.74 "HgN/A
4:20 AM59 °FPassing clouds.8 mph88%29.74 "HgN/A
3:50 AM61 °FSprinkles. Passing clouds.10 mph77%29.71 "HgN/A
3:20 AM64 °FPartly cloudy.12 mph64%29.71 "HgN/A
Weather by CustomWeather, © 2015

See weather overviewHow to use our weather pages